Zurück zum Katalog

MICE-1

AktivMilitärSSO
NORAD 66684·PAYLOAD·🇬🇷 Greece

Gestartet Nov 28, 2025 von Vandenberg Space Force Base

Loading…

Nächste Überflüge (nächste 24 Stunden)

TLE

AktuellSource: Space-Track

Epoche: Sep 14, 2026, 11:28 UTC

1 66684U 25276U   26257.47800062  .00002908  00000-0  13922-3 0  9990
2 66684  97.4198 329.6170 0006559  53.7900 306.3941 15.19727490 43971

Verfolge MICE-1 in Echtzeit mit AllMySat

Download on the App Store